KB1WCR Weather Reports


time (UTC)temp
C
wind
direction
speed
KPH
gust
KPH
rain 1hr
cm
rain 24hr
cm
rain mn
cm
humidity
%
barometer
mb
20260508153558 12 348 6.4 9.7 0.00 0.00 0.00 42 1007.6
20260508153054 13 294 1.6 1.6 0.00 0.00 0.00 42 1007.5
20260508152552 13 357 3.2 3.2 0.00 0.00 0.00 44 1007.8
20260508152046 13 258 1.6 3.2 0.00 0.00 0.00 44 1007.8
20260508151543 13 57 1.6 3.2 0.00 0.00 0.00 45 1007.7
20260508151040 13 256 1.6 1.6 0.00 0.00 0.00 44 1007.7
20260508150538 13 16 3.2 3.2 0.00 0.00 0.00 43 1007.7
20260508150033 13 273 0.0 1.6 0.00 0.00 0.00 41 1007.6
20260508145530 12 237 6.4 6.4 0.00 0.00 0.00 44 1007.8
20260508145026 12 311 6.4 6.4 0.00 0.00 0.00 43 1007.7
20260508144524 12 306 0.0 0.0 0.00 0.00 0.00 44 1008.0
20260508144021 12 306 4.8 9.7 0.00 0.00 0.00 48 1008.0
20260508143519 12 270 3.2 4.8 0.00 0.00 0.00 48 1007.8
20260508143015 13 16 6.4 11.3 0.00 0.00 0.00 45 1007.8
20260508142512 13 305 3.2 4.8 0.00 0.00 0.00 43 1007.8
20260508142009 12 229 1.6 1.6 0.00 0.00 0.00 51 1008.0
20260508141505 13 338 4.8 6.4 0.00 0.00 0.00 44 1008.1
20260508141003 13 228 6.4 6.4 0.00 0.00 0.00 46 1008.2
20260508140500 12 292 3.2 3.2 0.00 0.00 0.00 48 1008.0
20260508135955 13 29 3.2 3.2 0.00 0.00 0.00 46 1008.1
20260508135452 13 20 4.8 9.7 0.00 0.00 0.00 48 1008.2
20260508134949 12 357 1.6 3.2 0.00 0.00 0.00 50 1008.3
20260508134445 12 96 1.6 1.6 0.00 0.00 0.00 48 1008.3
20260508133942 12 217 1.6 3.2 0.00 0.00 0.00 49 1008.5
20260508133440 12 261 8.0 11.3 0.00 0.00 0.00 51 1008.5
20260508132936 12 258 6.4 9.7 0.00 0.00 0.00 50 1008.3
20260508132434 12 290 3.2 3.2 0.00 0.00 0.00 49 1008.6
20260508131931 12 197 3.2 3.2 0.00 0.00 0.00 49 1008.5
20260508131426 11 206 0.0 0.0 0.00 0.00 0.00 54 1008.4
20260508130923 12 217 1.6 3.2 0.00 0.00 0.00 52 1008.5
20260508130420 11 239 6.4 6.4 0.00 0.00 0.00 52 1008.4
20260508125916 11 225 4.8 6.4 0.00 0.00 0.00 53 1008.5
20260508125412 12 292 3.2 3.2 0.00 0.00 0.00 51 1008.4
20260508124910 12 235 0.0 1.6 0.00 0.00 0.00 52 1008.6
20260508124408 11 208 0.0 0.0 0.00 0.00 0.00 51 1008.6
20260508123905 11 266 3.2 3.2 0.00 0.00 0.00 53 1008.4
20260508123404 11 265 3.2 3.2 0.00 0.00 0.00 55 1008.5
20260508122859 11 222 4.8 6.4 0.00 0.00 0.00 54 1008.6
20260508122357 10 285 3.2 3.2 0.00 0.00 0.00 54 1008.5
20260508121854 10 312 1.6 3.2 0.00 0.00 0.00 54 1008.5
20260508121352 10 292 4.8 4.8 0.00 0.00 0.00 53 1008.4
20260508120849 10 283 1.6 3.2 0.00 0.00 0.00 58 1008.3
20260508120347 10 226 6.4 6.4 0.00 0.00 0.00 54 1008.3
20260508115844 9 225 3.2 3.2 0.00 0.00 0.00 58 1008.4
20260508115342 9 309 3.2 3.2 0.00 0.00 0.00 60 1008.6
20260508114838 9 219 4.8 4.8 0.00 0.00 0.00 59 1008.5
20260508114335 8 292 1.6 3.2 0.00 0.00 0.00 63 1008.5
20260508113832 8 232 1.6 1.6 0.00 0.00 0.00 62 1008.5
20260508113330 8 266 0.0 1.6 0.00 0.00 0.00 65 1008.4
20260508112826 8 285 1.6 1.6 0.00 0.00 0.00 64 1008.5
20260508112324 8 284 0.0 0.0 0.00 0.00 0.00 70 1008.5
20260508111820 8 204 1.6 1.6 0.00 0.00 0.00 67 1008.5
20260508111317 8 277 0.0 0.0 0.00 0.00 0.00 68 1008.4
20260508110815 8 284 0.0 0.0 0.00 0.00 0.00 68 1008.4
20260508110312 7 286 0.0 0.0 0.00 0.00 0.00 70 1008.4
20260508105811 6 287 0.0 0.0 0.00 0.00 0.00 78 1008.4
20260508105308 5 292 0.0 0.0 0.00 0.00 0.00 83 1008.5
20260508104805 4 292 0.0 0.0 0.00 0.00 0.00 82 1008.4
20260508104302 4 272 0.0 0.0 0.00 0.00 0.00 85 1008.4
20260508103800 3 277 0.0 0.0 0.00 0.00 0.00 88 1008.5
20260508103256 3 276 0.0 0.0 0.00 0.00 0.00 87 1008.4
20260508102754 2 304 0.0 0.0 0.00 0.00 0.00 90 1008.2
20260508102252 1 311 0.0 0.0 0.00 0.00 0.00 92 1008.2
20260508101749 1 327 0.0 0.0 0.00 0.00 0.00 94 1008.2
20260508101246 1 311 0.0 0.0 0.00 0.00 0.00 96 1008.0
20260508100744 0 319 0.0 0.0 0.00 0.00 0.00 96 1008.2
20260508100241 0 294 0.0 0.0 0.00 0.00 0.00 96 1008.0
20260508095737 0 87 0.0 0.0 0.00 0.00 0.00 96 1007.9
20260508095235 0 293 0.0 0.0 0.00 0.00 0.00 96 1007.9
20260508094732 0 298 0.0 0.0 0.00 0.00 0.00 96 1007.7
20260508094229 0 309 0.0 0.0 0.00 0.00 0.00 96 1007.7
20260508093726 0 291 0.0 0.0 0.00 0.00 0.00 96 1007.7
20260508093224 0 283 0.0 0.0 0.00 0.00 0.00 96 1007.7
20260508092720 0 281 0.0 0.0 0.00 0.00 0.00 96 1007.8
20260508092219 0 281 0.0 0.0 0.00 0.00 0.00 96 1007.5
20260508091716 0 283 0.0 0.0 0.00 0.00 0.00 95 1007.6
20260508091213 0 271 0.0 0.0 0.00 0.00 0.00 95 1007.2
20260508090711 0 288 0.0 0.0 0.00 0.00 0.00 94 1007.3
20260508090208 0 299 0.0 0.0 0.00 0.00 0.00 94 1007.2
20260508085704 0 300 0.0 0.0 0.00 0.00 0.00 94 1007.1
20260508085201 0 312 0.0 0.0 0.00 0.00 0.00 94 1007.2
20260508084657 0 311 0.0 0.0 0.00 0.00 0.00 94 1007.0
20260508084155 0 300 0.0 0.0 0.00 0.00 0.00 94 1007.0
20260508083652 0 286 0.0 0.0 0.00 0.00 0.00 94 1007.1
20260508083150 0 286 0.0 0.0 0.00 0.00 0.00 94 1007.0
20260508082644 0 286 0.0 0.0 0.00 0.00 0.00 93 1006.9
20260508082141 0 286 0.0 0.0 0.00 0.00 0.00 92 1007.0
20260508081634 1 286 0.0 0.0 0.00 0.00 0.00 92 1006.9
20260508081130 0 287 0.0 0.0 0.00 0.00 0.00 92 1007.0
20260508080627 0 278 0.0 0.0 0.00 0.00 0.00 92 1006.9
20260508080126 1 298 0.0 0.0 0.00 0.00 0.00 92 1006.9
20260508075621 1 318 0.0 0.0 0.00 0.00 0.00 92 1006.8
20260508075119 1 337 0.0 0.0 0.00 0.00 0.00 92 1006.6
20260508074616 1 331 0.0 0.0 0.00 0.00 0.00 90 1006.7
20260508074113 1 285 0.0 0.0 0.00 0.00 0.00 90 1006.4
20260508073611 1 330 0.0 0.0 0.00 0.00 0.00 90 1006.4
20260508073108 1 290 0.0 0.0 0.00 0.00 0.00 89 1006.4
20260508072603 2 281 0.0 0.0 0.00 0.00 0.00 88 1006.6
20260508072101 2 278 0.0 0.0 0.00 0.00 0.00 88 1006.5
20260508071559 2 278 0.0 0.0 0.00 0.00 0.00 87 1006.6
20260508071057 2 284 0.0 0.0 0.00 0.00 0.00 85 1006.6
20260508070554 2 290 0.0 0.0 0.00 0.00 0.00 85 1006.7
20260508070052 2 279 0.0 0.0 0.00 0.00 0.00 85 1006.8
20260508065549 2 277 0.0 0.0 0.00 0.00 0.00 84 1006.7
20260508065047 2 271 0.0 0.0 0.00 0.00 0.00 84 1006.7
20260508064544 2 273 0.0 0.0 0.00 0.00 0.00 85 1006.9
20260508064042 2 265 0.0 0.0 0.00 0.00 0.00 85 1006.6
20260508063538 2 272 0.0 0.0 0.00 0.00 0.00 84 1006.9
20260508063037 2 277 0.0 0.0 0.00 0.00 0.00 85 1007.0
20260508062529 3 274 0.0 0.0 0.00 0.00 0.00 85 1006.9
20260508062025 3 267 0.0 0.0 0.00 0.00 0.00 86 1007.2
20260508061523 3 279 0.0 0.0 0.00 0.00 0.00 83 1007.1
20260508061020 3 283 0.0 0.0 0.00 0.00 0.00 83 1007.3
20260508060516 3 290 0.0 0.0 0.00 0.00 0.00 82 1007.2
20260508060014 3 280 0.0 0.0 0.00 0.00 0.00 82 1007.2
20260508055509 3 284 0.0 0.0 0.00 0.00 0.00 80 1007.3
20260508055007 3 286 0.0 0.0 0.00 0.00 0.00 78 1007.3
20260508054503 3 301 0.0 0.0 0.00 0.00 0.00 78 1007.3
20260508054000 4 319 0.0 0.0 0.00 0.00 0.00 77 1007.4
20260508053457 4 294 0.0 0.0 0.00 0.00 0.00 76 1007.3
20260508052955 4 311 0.0 0.0 0.00 0.00 0.00 76 1007.3
20260508052452 4 285 0.0 0.0 0.00 0.00 0.00 76 1007.4
20260508051948 5 292 0.0 0.0 0.00 0.00 0.00 73 1007.5
20260508051444 4 280 0.0 0.0 0.00 0.00 0.00 72 1007.4
20260508050940 5 295 0.0 0.0 0.00 0.00 0.00 75 1007.5
20260508050436 5 344 0.0 0.0 0.00 0.00 0.00 72 1007.6
20260508045933 5 282 0.0 0.0 0.00 0.00 0.00 74 1007.6
20260508045425 5 281 0.0 0.0 0.00 0.00 0.00 74 1007.5
20260508044923 5 281 0.0 0.0 0.00 0.00 0.00 74 1007.6
20260508044420 5 286 0.0 0.0 0.00 0.00 0.00 71 1007.4
20260508043915 6 284 0.0 0.0 0.00 0.00 0.00 70 1007.4
20260508043413 6 276 1.6 1.6 0.00 0.00 0.00 67 1007.6
20260508042908 6 278 0.0 0.0 0.00 0.00 0.00 66 1007.4
20260508042401 6 301 0.0 0.0 0.00 0.00 0.00 65 1007.6
20260508041858 6 303 0.0 0.0 0.00 0.00 0.00 67 1007.6
20260508041353 6 286 0.0 0.0 0.00 0.00 0.00 70 1007.8
20260508040850 5 332 0.0 0.0 0.00 0.00 0.00 73 1007.6
20260508040348 6 280 0.0 0.0 0.00 0.00 0.00 75 1007.8
20260508035845 6 272 0.0 0.0 0.00 0.15 0.15 74 1007.7
20260508035342 6 283 0.0 0.0 0.00 0.15 0.15 69 1007.6
20260508034838 6 291 0.0 0.0 0.00 0.15 0.15 68 1007.7
20260508034336 6 300 0.0 0.0 0.00 0.15 0.15 67 1007.7
20260508033833 6 304 0.0 0.0 0.00 0.15 0.15 67 1007.5
20260508033331 6 290 0.0 0.0 0.00 0.15 0.15 68 1007.7
20260508032828 6 282 0.0 0.0 0.00 0.15 0.15 67 1007.9
20260508032326 7 279 0.0 0.0 0.00 0.15 0.15 67 1007.6
20260508031822 7 280 0.0 0.0 0.00 0.15 0.15 65 1007.8
20260508031319 7 282 0.0 0.0 0.00 0.15 0.15 63 1007.8
20260508030815 8 273 0.0 0.0 0.00 0.15 0.15 63 1007.8
20260508030313 8 280 0.0 0.0 0.00 0.15 0.15 58 1007.6
20260508025809 8 269 0.0 0.0 0.00 0.15 0.15 56 1007.7
20260508025307 8 286 0.0 0.0 0.00 0.15 0.15 54 1007.6
20260508024803 8 315 0.0 1.6 0.00 0.15 0.15 53 1007.7
20260508024300 8 284 1.6 1.6 0.00 0.15 0.15 52 1007.6
20260508023756 9 277 0.0 0.0 0.00 0.15 0.15 52 1007.5
20260508023253 9 251 0.0 0.0 0.00 0.15 0.15 51 1007.5
20260508022749 9 299 0.0 0.0 0.00 0.15 0.15 51 1007.5
20260508022246 9 275 1.6 1.6 0.00 0.15 0.15 50 1007.1
20260508021743 9 263 0.0 0.0 0.00 0.15 0.15 50 1007.1
20260508021238 10 264 0.0 1.6 0.00 0.15 0.15 51 1007.3
20260508020735 10 270 1.6 1.6 0.00 0.15 0.15 50 1007.3
20260508020233 10 264 0.0 0.0 0.00 0.15 0.15 49 1007.3
20260508015730 10 287 1.6 1.6 0.00 0.15 0.15 50 1007.3
20260508015227 10 286 1.6 1.6 0.00 0.15 0.15 49 1007.1
20260508014724 10 313 0.0 0.0 0.00 0.15 0.15 48 1007.0
20260508014221 10 2 6.4 9.7 0.00 0.15 0.15 47 1007.1
20260508013716 10 57 1.6 1.6 0.00 0.15 0.15 48 1006.9
20260508013213 10 288 3.2 6.4 0.00 0.15 0.15 47 1006.8
20260508012711 10 247 1.6 3.2 0.00 0.15 0.15 47 1007.0
20260508012207 10 356 6.4 6.4 0.00 0.15 0.15 46 1006.9
20260508011706 10 274 1.6 3.2 0.00 0.15 0.15 47 1006.6
20260508011203 11 271 1.6 1.6 0.00 0.15 0.15 48 1006.7
20260508010659 11 332 0.0 1.6 0.00 0.15 0.15 45 1006.7
20260508010157 11 28 4.8 4.8 0.00 0.15 0.15 46 1006.5
20260508005654 11 296 1.6 1.6 0.00 0.15 0.15 45 1006.6
20260508005151 11 303 0.0 1.6 0.00 0.15 0.15 47 1006.3
20260508004646 11 359 1.6 1.6 0.00 0.15 0.15 46 1006.4
20260508004143 11 292 0.0 0.0 0.00 0.15 0.15 46 1006.2
20260508003639 11 279 0.0 0.0 0.00 0.15 0.15 47 1006.1
20260508003137 11 335 0.0 0.0 0.00 0.15 0.15 44 1005.9
20260508002633 11 276 1.6 3.2 0.00 0.15 0.15 44 1005.7
20260508002132 12 313 0.0 0.0 0.00 0.15 0.15 42 1005.8
20260508001626 12 340 3.2 4.8 0.00 0.15 0.15 43 1005.7
20260508001123 12 244 3.2 3.2 0.00 0.15 0.15 42 1005.6
20260508000618 12 302 3.2 3.2 0.00 0.15 0.15 43 1005.5
20260508000116 12 350 1.6 1.6 0.00 0.15 0.15 41 1005.4
20260507235613 12 29 0.0 0.0 0.00 0.15 0.15 44 1005.4
20260507235110 12 273 3.2 4.8 0.00 0.15 0.15 43 1005.6
20260507234606 12 315 0.0 0.0 0.00 0.15 0.15 43 1005.5
20260507234103 13 7 1.6 4.8 0.00 0.15 0.15 42 1005.4
20260507233600 13 347 8.0 11.3 0.00 0.15 0.15 41 1005.2
20260507233059 13 308 1.6 1.6 0.00 0.15 0.15 44 1005.3
20260507232554 13 15 1.6 1.6 0.00 0.15 0.15 41 1005.1
20260507232052 13 279 0.0 1.6 0.00 0.15 0.15 41 1005.2
20260507231548 14 308 3.2 4.8 0.00 0.15 0.15 40 1005.2
20260507231046 14 17 1.6 3.2 0.00 0.15 0.15 40 1005.1
20260507230542 15 288 1.6 3.2 0.00 0.15 0.15 40 1004.9
20260507230038 15 245 3.2 4.8 0.00 0.15 0.15 39 1004.9
20260507225533 14 309 3.2 4.8 0.00 0.15 0.15 40 1004.8
20260507225030 14 197 9.7 12.9 0.00 0.15 0.15 39 1004.7
20260507224526 15 294 3.2 4.8 0.00 0.15 0.15 39 1004.8
20260507224023 15 224 4.8 4.8 0.00 0.15 0.15 39 1004.5
20260507223519 15 321 8.0 11.3 0.00 0.15 0.15 38 1004.6
20260507223016 15 231 4.8 6.4 0.00 0.15 0.15 39 1004.5
20260507222513 15 255 3.2 3.2 0.00 0.15 0.15 38 1004.4
20260507222009 15 257 6.4 6.4 0.00 0.15 0.15 36 1004.5
20260507221506 15 277 3.2 3.2 0.00 0.15 0.15 40 1004.2
20260507221003 15 238 6.4 6.4 0.00 0.15 0.15 40 1004.3
20260507220500 15 239 3.2 3.2 0.00 0.15 0.15 37 1004.2
20260507215957 15 269 6.4 9.7 0.00 0.15 0.15 38 1004.3
20260507215453 15 226 8.0 9.7 0.00 0.15 0.15 36 1004.3
20260507214951 16 281 6.4 9.7 0.00 0.15 0.15 35 1004.2
20260507214448 16 281 4.8 9.7 0.00 0.15 0.15 34 1004.3
20260507213943 16 261 1.6 3.2 0.00 0.15 0.15 38 1004.2
20260507213440 16 272 1.6 1.6 0.00 0.15 0.15 39 1004.2
20260507212937 17 175 8.0 9.7 0.00 0.15 0.15 36 1004.1
20260507212427 16 304 4.8 6.4 0.00 0.15 0.15 35 1004.2
20260507211924 16 294 8.0 14.5 0.00 0.15 0.15 35 1004.3
20260507211421 16 44 6.4 6.4 0.00 0.15 0.15 36 1004.3
20260507210918 17 282 4.8 4.8 0.00 0.15 0.15 35 1004.0
20260507210415 16 268 0.0 0.0 0.00 0.15 0.15 38 1004.2
20260507205911 16 319 3.2 4.8 0.00 0.15 0.15 37 1004.3
20260507205409 15 302 3.2 4.8 0.00 0.15 0.15 36 1004.1
20260507204904 17 228 8.0 11.3 0.00 0.15 0.15 35 1003.9
20260507204401 16 277 1.6 3.2 0.00 0.15 0.15 37 1004.2
20260507203859 17 337 4.8 6.4 0.00 0.15 0.15 38 1004.0
20260507203357 16 285 3.2 6.4 0.00 0.15 0.15 36 1003.9
20260507202853 16 316 4.8 6.4 0.00 0.15 0.15 37 1004.2
20260507202349 16 211 6.4 6.4 0.00 0.15 0.15 37 1003.9
20260507201845 16 238 1.6 3.2 0.00 0.15 0.15 38 1003.8
20260507201341 16 24 9.7 11.3 0.00 0.15 0.15 37 1003.9
20260507200837 16 318 6.4 9.7 0.00 0.15 0.15 38 1004.1
20260507200333 16 250 3.2 6.4 0.00 0.15 0.15 39 1004.0
20260507195829 17 195 4.8 4.8 0.00 0.15 0.15 39 1004.1
20260507195327 17 305 3.2 4.8 0.00 0.15 0.15 38 1004.1
20260507194824 16 211 3.2 3.2 0.00 0.15 0.15 41 1004.0
20260507194320 15 242 8.0 9.7 0.00 0.15 0.15 40 1004.1
20260507193817 16 255 11.3 17.7 0.00 0.15 0.15 39 1004.3
20260507193314 16 16 4.8 9.7 0.00 0.15 0.15 41 1004.1
20260507192809 16 21 0.0 3.2 0.00 0.15 0.15 41 1004.3
20260507192307 15 266 1.6 3.2 0.00 0.15 0.15 45 1004.5
20260507191803 15 261 3.2 4.8 0.00 0.15 0.15 46 1004.4
20260507191259 15 289 6.4 6.4 0.00 0.15 0.15 43 1004.4
20260507190756 15 300 0.0 0.0 0.00 0.15 0.15 43 1004.4
20260507190255 17 184 4.8 6.4 0.00 0.15 0.15 41 1004.3
20260507185753 17 257 3.2 4.8 0.00 0.15 0.15 42 1004.2
20260507185249 16 229 6.4 9.7 0.00 0.15 0.15 43 1004.1
20260507184747 16 214 1.6 3.2 0.00 0.15 0.15 42 1004.2
20260507184245 16 321 6.4 9.7 0.00 0.15 0.15 41 1004.5
20260507183741 16 279 8.0 11.3 0.00 0.15 0.15 41 1004.4
20260507183238 16 192 4.8 4.8 0.00 0.15 0.15 40 1004.7
20260507182736 16 207 6.4 11.3 0.00 0.15 0.15 39 1004.5
20260507182230 15 239 9.7 12.9 0.00 0.15 0.15 43 1004.5
20260507181728 15 221 12.9 16.1 0.00 0.15 0.15 42 1004.6
20260507181224 16 252 3.2 4.8 0.00 0.15 0.15 46 1004.6
20260507180721 16 250 4.8 4.8 0.00 0.15 0.15 47 1004.6
20260507180218 15 246 11.3 12.9 0.00 0.15 0.15 51 1004.4
20260507175713 15 307 12.9 16.1 0.00 0.15 0.15 51 1004.5
20260507175210 16 292 3.2 3.2 0.00 0.15 0.15 45 1004.6
20260507174708 16 211 9.7 11.3 0.00 0.15 0.15 46 1004.5
20260507174205 16 228 12.9 14.5 0.00 0.15 0.15 48 1004.6
20260507173703 15 214 6.4 6.4 0.00 0.15 0.15 50 1004.7
20260507173159 15 238 6.4 9.7 0.00 0.15 0.15 53 1004.9
20260507172656 15 234 12.9 14.5 0.00 0.15 0.15 49 1004.9
20260507172147 15 287 4.8 4.8 0.00 0.15 0.15 57 1004.9
20260507171641 15 266 3.2 4.8 0.00 0.15 0.15 57 1004.9
20260507171138 15 274 6.4 11.3 0.00 0.15 0.15 54 1004.8
20260507170635 15 272 4.8 6.4 0.00 0.15 0.15 54 1004.8
20260507170133 15 255 9.7 16.1 0.00 0.15 0.15 54 1004.9
20260507165628 16 298 3.2 12.9 0.00 0.15 0.15 52 1005.0
20260507165125 16 220 4.8 4.8 0.00 0.15 0.15 55 1005.0
20260507164620 16 269 4.8 6.4 0.00 0.15 0.15 55 1005.3
20260507164118 15 316 9.7 11.3 0.00 0.15 0.15 57 1005.2
20260507163615 15 224 4.8 4.8 0.00 0.15 0.15 59 1005.2
20260507163114 14 252 3.2 4.8 0.00 0.15 0.15 58 1005.2
20260507162614 15 277 9.7 12.9 0.00 0.15 0.15 56 1005.2
20260507162111 15 270 3.2 4.8 0.00 0.15 0.15 59 1005.3
20260507161607 15 252 4.8 4.8 0.00 0.15 0.15 60 1005.2
20260507161103 15 268 4.8 6.4 0.00 0.15 0.15 59 1005.3
20260507160554 15 283 4.8 4.8 0.00 0.15 0.15 62 1005.5
20260507160051 15 14 6.4 9.7 0.00 0.15 0.15 60 1005.6
20260507155546 16 240 11.3 12.9 0.00 0.15 0.15 52 1005.4
20260507155044 16 217 8.0 9.7 0.00 0.15 0.15 54 1005.5
20260507154540 15 255 1.6 1.6 0.00 0.15 0.15 59 1005.6
20260507154037 14 201 4.8 6.4 0.00 0.15 0.15 59 1005.5